Time,TemperatureF,DewpointF,PressureIn,WindDirection,WindDirectionDegrees,WindSpeedMPH,WindSpeedGustMPH,Humidity,HourlyPrecipIn,Conditions,Clouds,dailyrainin,SoftwareType,DateUTC
2013-01-01 00:11:00,32.9,26.0,29.90,West,263,4.0,-999.0,76,-99.99,,,0.00,weatherlink.com 1.10,2013-01-01 05:11:00,
2013-01-01 00:24:00,32.8,26.0,29.90,WSW,250,0.0,-999.0,77,-99.99,,,0.00,weatherlink.com 1.10,2013-01-01 05:24:00,
2013-01-01 00:41:00,32.7,26.0,29.89,SW,230,5.0,-999.0,76,-99.99,,,0.00,weatherlink.com 1.10,2013-01-01 05:41:00,
2013-01-01 00:55:00,32.7,26.0,29.89,WSW,254,0.0,-999.0,76,-99.99,,,0.00,weatherlink.com 1.10,2013-01-01 05:55:00,
2013-01-01 01:10:00,32.4,25.0,29.89,West,264,0.0,-999.0,75,-99.99,,,0.00,weatherlink.com 1.10,2013-01-01 06:10:00,
2013-01-01 01:24:00,32.2,25.0,29.90,WNW,302,0.0,-999.0,74,-99.99,,,0.00,weatherlink.com 1.10,2013-01-01 06:24:00,
2013-01-01 01:39:00,32.1,24.0,29.90,West,274,0.0,-999.0,72,-99.99,,,0.00,weatherlink.com 1.10,2013-01-01 06:39:00,
2013-01-01 01:54:00,31.2,23.0,29.92,WSW,248,0.0,-999.0,71,-99.99,,,0.00,weatherlink.com 1.10,2013-01-01 06:54:00,
2013-01-01 02:10:00,30.6,22.0,29.92,North,5,0.0,-999.0,71,-99.99,,,0.00,weatherlink.com 1.10,2013-01-01 07:10:00,
2013-01-01 02:24:00,30.1,22.0,29.92,NNE,15,0.0,-999.0,71,-99.99,,,0.00,weatherlink.com 1.10,2013-01-01 07:24:00,
2013-01-01 02:40:00,29.8,22.0,29.92,North,360,0.0,-999.0,72,-99.99,,,0.00,weatherlink.com 1.10,2013-01-01 07:40:00,
2013-01-01 02:54:00,29.4,21.0,29.93,NE,38,0.0,-999.0,72,-99.99,,,0.00,weatherlink.com 1.10,2013-01-01 07:54:00,
2013-01-01 03:09:00,29.0,21.0,29.93,NNE,24,3.0,-999.0,72,-99.99,,,0.00,weatherlink.com 1.10,2013-01-01 08:09:00,
2013-01-01 03:25:00,28.8,20.0,29.93,North,5,1.0,-999.0,70,-99.99,,,0.00,weatherlink.com 1.10,2013-01-01 08:25:00,
2013-01-01 03:40:00,28.8,20.0,29.93,NNE,25,0.0,-999.0,70,-99.99,,,0.00,weatherlink.com 1.10,2013-01-01 08:40:00,
2013-01-01 03:54:00,28.7,20.0,29.94,North,360,0.0,-999.0,70,-99.99,,,0.00,weatherlink.com 1.10,2013-01-01 08:54:00,
2013-01-01 04:10:00,28.5,20.0,29.93,NNW,331,0.0,-999.0,69,-99.99,,,0.00,weatherlink.com 1.10,2013-01-01 09:10:00,
2013-01-01 04:24:00,28.2,19.0,29.94,North,351,0.0,-999.0,68,-99.99,,,0.00,weatherlink.com 1.10,2013-01-01 09:24:00,
2013-01-01 04:40:00,28.1,18.0,29.94,NNE,26,0.0,-999.0,67,-99.99,,,0.00,weatherlink.com 1.10,2013-01-01 09:40:00,
2013-01-01 04:55:00,27.9,18.0,29.94,North,355,2.0,-999.0,67,-99.99,,,0.00,weatherlink.com 1.10,2013-01-01 09:55:00,
2013-01-01 05:09:00,27.9,18.0,29.94,NNW,348,0.0,-999.0,66,-99.99,,,0.00,weatherlink.com 1.10,2013-01-01 10:09:00,
2013-01-01 05:24:00,27.8,17.0,29.94,North,355,0.0,-999.0,65,-99.99,,,0.00,weatherlink.com 1.10,2013-01-01 10:24:00,
2013-01-01 05:39:00,27.6,18.0,29.95,North,5,0.0,-999.0,66,-99.99,,,0.00,weatherlink.com 1.10,2013-01-01 10:39:00,
2013-01-01 05:54:00,27.6,18.0,29.96,WNW,300,0.0,-999.0,67,-99.99,,,0.00,weatherlink.com 1.10,2013-01-01 10:54:00,
2013-01-01 06:10:00,27.5,18.0,29.96,West,277,0.0,-999.0,67,-99.99,,,0.00,weatherlink.com 1.10,2013-01-01 11:10:00,
2013-01-01 06:24:00,27.2,17.0,29.97,NNW,331,0.0,-999.0,65,-99.99,,,0.00,weatherlink.com 1.10,2013-01-01 11:24:00,
2013-01-01 06:40:00,26.7,16.0,29.98,NW,313,0.0,-999.0,65,-99.99,,,0.00,weatherlink.com 1.10,2013-01-01 11:40:00,
2013-01-01 06:55:00,26.4,16.0,29.98,North,5,0.0,-999.0,64,-99.99,,,0.00,weatherlink.com 1.10,2013-01-01 11:55:00,
2013-01-01 07:09:00,26.0,14.0,29.98,NNW,328,2.0,-999.0,62,-99.99,,,0.00,weatherlink.com 1.10,2013-01-01 12:09:00,
2013-01-01 07:25:00,25.8,15.0,29.98,North,11,0.0,-999.0,63,-99.99,,,0.00,weatherlink.com 1.10,2013-01-01 12:25:00,
2013-01-01 07:40:00,25.7,15.0,29.99,NNW,338,0.0,-999.0,64,-99.99,,,0.00,weatherlink.com 1.10,2013-01-01 12:40:00,
2013-01-01 08:10:00,25.1,14.0,30.00,NNE,19,3.0,-999.0,62,-99.99,,,0.00,weatherlink.com 1.10,2013-01-01 13:10:00,
2013-01-01 08:24:00,25.0,13.0,30.00,West,268,0.0,-999.0,61,-99.99,,,0.00,weatherlink.com 1.10,2013-01-01 13:24:00,
2013-01-01 08:40:00,24.7,14.0,30.01,NNW,331,0.0,-999.0,63,-99.99,,,0.00,weatherlink.com 1.10,2013-01-01 13:40:00,
2013-01-01 08:54:00,24.7,14.0,30.02,WSW,252,0.0,-999.0,64,-99.99,,,0.00,weatherlink.com 1.10,2013-01-01 13:54:00,
2013-01-01 09:10:00,24.8,15.0,30.02,NNE,27,2.0,-999.0,66,-99.99,,,0.00,weatherlink.com 1.10,2013-01-01 14:10:00,
2013-01-01 09:25:00,25.0,15.0,30.02,ESE,103,0.0,-999.0,67,-99.99,,,0.00,weatherlink.com 1.10,2013-01-01 14:25:00,
2013-01-01 09:40:00,25.3,16.0,30.02,NNE,15,0.0,-999.0,68,-99.99,,,0.00,weatherlink.com 1.10,2013-01-01 14:40:00,
2013-01-01 09:55:00,25.4,16.0,30.03,North,355,0.0,-999.0,68,-99.99,,,0.00,weatherlink.com 1.10,2013-01-01 14:55:00,
2013-01-01 10:10:00,25.0,16.0,30.04,North,9,0.0,-999.0,68,-99.99,,,0.00,weatherlink.com 1.10,2013-01-01 15:10:00,
2013-01-01 10:25:00,25.1,16.0,30.04,NNW,347,0.0,-999.0,68,-99.99,,,0.00,weatherlink.com 1.10,2013-01-01 15:25:00,
2013-01-01 10:40:00,25.1,18.0,30.05,North,349,3.0,-999.0,74,-99.99,,,0.00,weatherlink.com 1.10,2013-01-01 15:40:00,
2013-01-01 10:55:00,24.2,18.0,30.05,NNE,28,5.0,-999.0,76,-99.99,,,0.00,weatherlink.com 1.10,2013-01-01 15:55:00,
2013-01-01 11:10:00,24.1,18.0,30.05,NNE,29,0.0,-999.0,78,-99.99,,,0.00,weatherlink.com 1.10,2013-01-01 16:10:00,
2013-01-01 11:25:00,23.9,19.0,30.05,North,355,0.0,-999.0,80,-99.99,,,0.00,weatherlink.com 1.10,2013-01-01 16:25:00,
2013-01-01 11:40:00,23.6,17.0,30.05,NNE,15,2.0,-999.0,75,-99.99,,,0.00,weatherlink.com 1.10,2013-01-01 16:40:00,
2013-01-01 11:55:00,24.2,15.0,30.05,NE,56,6.0,-999.0,68,-99.99,,,0.00,weatherlink.com 1.10,2013-01-01 16:55:00,
2013-01-01 12:09:00,24.5,15.0,30.03,NNW,342,1.0,-999.0,66,-99.99,,,0.00,weatherlink.com 1.10,2013-01-01 17:09:00,
2013-01-01 12:25:00,23.9,13.0,30.04,NNE,15,2.0,-999.0,64,-99.99,,,0.00,weatherlink.com 1.10,2013-01-01 17:25:00,
2013-01-01 12:40:00,24.1,13.0,30.03,NNE,22,13.0,-999.0,63,-99.99,,,0.00,weatherlink.com 1.10,2013-01-01 17:40:00,
2013-01-01 12:54:00,24.2,13.0,30.03,NNE,17,3.0,-999.0,62,-99.99,,,0.00,weatherlink.com 1.10,2013-01-01 17:54:00,
2013-01-01 13:10:00,24.4,12.0,30.01,North,5,3.0,-999.0,60,-99.99,,,0.00,weatherlink.com 1.10,2013-01-01 18:10:00,
2013-01-01 13:25:00,24.4,11.0,30.00,North,5,3.0,-999.0,58,-99.99,,,0.00,weatherlink.com 1.10,2013-01-01 18:25:00,
2013-01-01 13:39:00,23.9,11.0,30.00,NE,51,2.0,-999.0,57,-99.99,,,0.00,weatherlink.com 1.10,2013-01-01 18:39:00,
2013-01-01 13:55:00,23.5,11.0,30.01,North,351,0.0,-999.0,58,-99.99,,,0.00,weatherlink.com 1.10,2013-01-01 18:55:00,
2013-01-01 14:10:00,24.1,10.0,30.01,NNE,16,0.0,-999.0,56,-99.99,,,0.00,weatherlink.com 1.10,2013-01-01 19:10:00,
2013-01-01 14:25:00,24.7,11.0,30.01,North,5,2.0,-999.0,56,-99.99,,,0.00,weatherlink.com 1.10,2013-01-01 19:25:00,
2013-01-01 14:39:00,25.0,11.0,30.02,ENE,59,0.0,-999.0,55,-99.99,,,0.00,weatherlink.com 1.10,2013-01-01 19:39:00,
2013-01-01 14:54:00,24.7,11.0,30.02,NNE,24,0.0,-999.0,56,-99.99,,,0.00,weatherlink.com 1.10,2013-01-01 19:54:00,
2013-01-01 15:10:00,24.1,11.0,30.02,NE,41,0.0,-999.0,57,-99.99,,,0.00,weatherlink.com 1.10,2013-01-01 20:10:00,
2013-01-01 15:40:00,23.5,10.0,30.02,North,355,1.0,-999.0,57,-99.99,,,0.00,weatherlink.com 1.10,2013-01-01 20:40:00,
2013-01-01 15:55:00,23.2,10.0,30.02,NE,42,0.0,-999.0,57,-99.99,,,0.00,weatherlink.com 1.10,2013-01-01 20:55:00,
2013-01-01 16:10:00,22.9,10.0,30.02,North,11,0.0,-999.0,58,-99.99,,,0.00,weatherlink.com 1.10,2013-01-01 21:10:00,
2013-01-01 16:24:00,22.2,9.0,30.03,NNE,27,0.0,-999.0,58,-99.99,,,0.00,weatherlink.com 1.10,2013-01-01 21:24:00,
2013-01-01 16:40:00,21.8,9.0,30.03,NNE,22,0.0,-999.0,59,-99.99,,,0.00,weatherlink.com 1.10,2013-01-01 21:40:00,
2013-01-01 16:55:00,21.1,9.0,30.04,NE,45,0.0,-999.0,60,-99.99,,,0.00,weatherlink.com 1.10,2013-01-01 21:55:00,
2013-01-01 17:10:00,20.3,8.0,30.05,NE,45,0.0,-999.0,60,-99.99,,,0.00,weatherlink.com 1.10,2013-01-01 22:10:00,
2013-01-01 17:26:00,19.5,9.0,30.05,NE,45,0.0,-999.0,64,-99.99,,,0.00,weatherlink.com 1.10,2013-01-01 22:26:00,
2013-01-01 17:40:00,19.2,9.0,30.06,NE,45,0.0,-999.0,64,-99.99,,,0.00,weatherlink.com 1.10,2013-01-01 22:40:00,
2013-01-01 17:55:00,18.9,9.0,30.07,NE,45,0.0,-999.0,64,-99.99,,,0.00,weatherlink.com 1.10,2013-01-01 22:55:00,
2013-01-01 18:10:00,18.1,8.0,30.07,NE,45,0.0,-999.0,65,-99.99,,,0.00,weatherlink.com 1.10,2013-01-01 23:10:00,
2013-01-01 18:25:00,17.5,8.0,30.07,NE,45,0.0,-999.0,67,-99.99,,,0.00,weatherlink.com 1.10,2013-01-01 23:25:00,
2013-01-01 18:40:00,17.3,8.0,30.07,NE,45,0.0,-999.0,67,-99.99,,,0.00,weatherlink.com 1.10,2013-01-01 23:40:00,
2013-01-01 18:55:00,17.3,8.0,30.07,NE,42,0.0,-999.0,68,-99.99,,,0.00,weatherlink.com 1.10,2013-01-01 23:55:00,
2013-01-01 19:10:00,18.0,9.0,30.07,NE,42,0.0,-999.0,67,-99.99,,,0.00,weatherlink.com 1.10,2013-01-02 00:10:00,
2013-01-01 19:25:00,17.8,9.0,30.06,NE,42,0.0,-999.0,67,-99.99,,,0.00,weatherlink.com 1.10,2013-01-02 00:25:00,
2013-01-01 19:40:00,17.5,8.0,30.06,NE,42,0.0,-999.0,67,-99.99,,,0.00,weatherlink.com 1.10,2013-01-02 00:40:00,
2013-01-01 19:55:00,17.2,8.0,30.06,NE,42,0.0,-999.0,68,-99.99,,,0.00,weatherlink.com 1.10,2013-01-02 00:55:00,
2013-01-01 20:11:00,17.0,8.0,30.06,WSW,247,0.0,-999.0,68,-99.99,,,0.00,weatherlink.com 1.10,2013-01-02 01:11:00,
2013-01-01 20:26:00,16.9,8.0,30.06,WSW,247,0.0,-999.0,68,-99.99,,,0.00,weatherlink.com 1.10,2013-01-02 01:26:00,
2013-01-01 20:40:00,16.7,7.0,30.06,SW,227,0.0,-999.0,67,-99.99,,,0.00,weatherlink.com 1.10,2013-01-02 01:40:00,
2013-01-01 20:55:00,16.5,7.0,30.06,SW,227,0.0,-999.0,67,-99.99,,,0.00,weatherlink.com 1.10,2013-01-02 01:55:00,
2013-01-01 21:10:00,16.5,7.0,30.06,SW,227,0.0,-999.0,67,-99.99,,,0.00,weatherlink.com 1.10,2013-01-02 02:10:00,
2013-01-01 21:25:00,16.9,7.0,30.06,SW,227,0.0,-999.0,66,-99.99,,,0.00,weatherlink.com 1.10,2013-01-02 02:25:00,
2013-01-01 21:40:00,16.9,7.0,30.06,SW,227,0.0,-999.0,66,-99.99,,,0.00,weatherlink.com 1.10,2013-01-02 02:40:00,
2013-01-01 21:55:00,16.4,7.0,30.06,SW,227,0.0,-999.0,67,-99.99,,,0.00,weatherlink.com 1.10,2013-01-02 02:55:00,
2013-01-01 22:10:00,16.5,8.0,30.06,SW,227,0.0,-999.0,68,-99.99,,,0.00,weatherlink.com 1.10,2013-01-02 03:10:00,
2013-01-01 22:26:00,16.5,8.0,30.05,SW,227,0.0,-999.0,68,-99.99,,,0.00,weatherlink.com 1.10,2013-01-02 03:26:00,
2013-01-01 22:40:00,17.0,8.0,30.06,WSW,240,0.0,-999.0,68,-99.99,,,0.00,weatherlink.com 1.10,2013-01-02 03:40:00,
2013-01-01 22:55:00,17.5,8.0,30.07,WNW,293,0.0,-999.0,67,-99.99,,,0.00,weatherlink.com 1.10,2013-01-02 03:55:00,
2013-01-01 23:10:00,18.0,9.0,30.06,SW,227,0.0,-999.0,67,-99.99,,,0.00,weatherlink.com 1.10,2013-01-02 04:10:00,
2013-01-01 23:25:00,18.4,9.0,30.06,WSW,240,0.0,-999.0,66,-99.99,,,0.00,weatherlink.com 1.10,2013-01-02 04:25:00,
2013-01-01 23:41:00,18.9,9.0,30.07,West,260,0.0,-999.0,65,-99.99,,,0.00,weatherlink.com 1.10,2013-01-02 04:41:00,
2013-01-01 23:55:00,19.2,9.0,30.06,SW,231,0.0,-999.0,65,-99.99,,,0.00,weatherlink.com 1.10,2013-01-02 04:55:00,